Simultaneous Nadir Overpasses (SNOs) Predictions

Prediction of SNOs between FY3D and TERRA Satellite Orbit:

Table of predicted SNOs for the next 14.0 days since TLE Epoch: 9/2/2023
Index Date (FY3D) Time (FY3D) Lat,Lon (FY3D) SZA (FY3D ) Date (TERRA) Time (TERRA) Lat,Lon (TERRA) SZA (TERRA ) Distance(km) Time Diff (sec)
1 09/04/2023 12:00:20 -74.18, 179.52 113.08 09/04/2023 12:01:32 -74.10, 179.92 113.16 14.69 72
2 09/04/2023 12:51:03 74.00, -12.73 66.76 09/04/2023 12:50:56 73.98, -12.69 66.74 2.36 7
3 09/04/2023 13:41:36 -73.42, 155.98 113.81 09/04/2023 13:40:28 -73.49, 153.91 113.75 66.12 68
4 09/07/2023 00:04:22 74.08, 178.80 67.75 09/07/2023 00:05:25 74.07, 178.85 67.74 1.82 63
5 09/07/2023 00:55:05 -73.98, -13.65 112.33 09/07/2023 00:54:49 -74.00, -13.66 112.32 1.26 16
6 09/09/2023 12:08:24 -74.06, 177.87 111.33 09/09/2023 12:09:18 -74.06, 177.84 111.33 1.04 54
7 09/09/2023 12:59:09 73.99, -14.66 68.62 09/09/2023 12:58:41 73.98, -14.68 68.61 1.47 28
8 09/12/2023 00:12:28 74.08, 176.83 69.65 09/12/2023 00:13:09 74.07, 176.87 69.63 1.57 41
9 09/12/2023 01:03:12 -74.03, -15.71 110.40 09/12/2023 01:02:33 -74.01, -15.61 110.42 3.46 39
10 09/14/2023 12:16:30 -74.07, 175.90 109.42 09/14/2023 12:17:01 -74.08, 175.90 109.40 1.66 31
11 09/14/2023 13:07:15 74.01, -16.65 70.55 09/14/2023 13:06:24 73.99, -16.65 70.52 2.49 51



Historial Predications of SNOs between FY3D and TERRA
